Weather History for Andrews, NC

Change the Weather History Date:

Tuesday, March 18, 2014

  Actual Average (KTYS) Record (KTYS)
Temperature  
Mean Temperature 52 °F 51 °F  
Max Temperature 63 °F 62 °F 83 °F (1908)
Min Temperature 42 °F 40 °F 15 °F (1902)
Degree Days  
Heating Degree Days 12 14  
Month to date heating degree days 299  
Since 1 July heating degree days 3195  
Cooling Degree Days 0 0  
Month to date cooling degree days 0  
Year to date cooling degree days 0  
Growing Degree Days 2 (Base 50)    
Moisture  
Dew Point 43 °F    
Average Humidity 81    
Maximum Humidity 98    
Minimum Humidity 54    
Precipitation  
Precipitation 0.00 in 0.14 in 2.45 in (2002)
Month to date precipitation 2.47  
Year to date precipitation 11.05  
Snow  
Snow 0.00 in 0.10 in - ()
Month to date snowfall 0.6  
Since 1 July snowfall 5.7  
Snow Depth -    
Sea Level Pressure  
Sea Level Pressure 29.91 in    
Wind  
Wind Speed 4 mph (WSW)    
Max Wind Speed 13 mph    
Max Gust Speed 18 mph    
Visibility 9 miles    
Events      
T = Trace of Precipitation, MM = Missing Value Source: NWS Daily Summary

Daily Weather History Graph

Daily Weather History Graph

Search for Another Location

Airport:

Trip Planner

Search our weather history database for the weather conditions in past years. The results will help you decide how hot, cold, wet, or windy it might be!

Date:

Astronomy

Mar. 18, 2014 Rise Set
Actual Time 7:41 AM EDT 7:45 PM EDT
Civil Twilight 7:16 AM EDT 8:10 PM EDT
Nautical Twilight 6:47 AM EDT 8:40 PM EDT
Astronomical Twilight 6:17 AM EDT 9:10 PM EDT
Moon 9:55 PM EDT (3/18) 8:35 AM EDT (3/18)
Length of Visible Light 12h 54m
Length of Day
12h 03m
Waning Gibbous, 96% of the Moon is Illuminated
Mar 18
Waning Gibbous
Mar 23
Last Quarter
Mar 30
New
Apr 7
First Quarter
Apr 15
Full

Hourly Weather History & Observations

Time (EDT) Temp. Windchill Dew Point Humidity Pressure Visibility Wind Dir Wind Speed Gust Speed Precip Events Conditions
12:15 AM 44.4 °F 40.0 °F 43.0 °F 95% 29.82 in 5.0 mi West 8.1 mph - N/A   Overcast
12:35 AM 44.1 °F 40.8 °F 43.0 °F 96% 29.82 in 4.0 mi West 5.8 mph - N/A   Overcast
12:55 AM 43.7 °F 40.3 °F 42.8 °F 97% 29.83 in 4.0 mi WSW 5.8 mph - N/A   Overcast
1:15 AM 43.7 °F - 42.6 °F 96% 29.83 in 7.0 mi Calm Calm - N/A   Overcast
1:35 AM 43.7 °F - 42.8 °F 97% 29.83 in 10.0 mi Calm Calm - N/A   Overcast
1:55 AM 43.7 °F - 42.8 °F 97% 29.84 in 7.0 mi Calm Calm - N/A   Overcast
2:15 AM 43.7 °F - 42.6 °F 96% 29.84 in 7.0 mi Calm Calm - N/A   Overcast
2:35 AM 43.7 °F - 42.6 °F 96% 29.84 in 5.0 mi Calm Calm - N/A   Overcast
2:55 AM 43.3 °F 41.7 °F 42.3 °F 96% 29.83 in 5.0 mi West 3.5 mph - N/A   Overcast
3:15 AM 43.0 °F 40.3 °F 42.3 °F 97% 29.83 in 5.0 mi West 4.6 mph - N/A   Overcast
3:35 AM 43.0 °F - 42.3 °F 97% 29.81 in 10.0 mi Calm Calm - N/A   Overcast
3:55 AM 42.8 °F - 41.9 °F 97% 29.81 in 7.0 mi Calm Calm - N/A   Overcast
4:15 AM 42.6 °F - 42.1 °F 98% 29.79 in 10.0 mi Calm Calm - N/A   Overcast
4:35 AM 42.8 °F 41.1 °F 42.1 °F 97% 29.79 in 10.0 mi SW 3.5 mph - N/A   Overcast
4:55 AM 42.4 °F - 41.9 °F 98% 29.80 in 10.0 mi Calm Calm - N/A   Overcast
5:15 AM 42.4 °F 40.7 °F 41.9 °F 98% 29.80 in 10.0 mi WSW 3.5 mph - N/A   Overcast
5:35 AM 42.8 °F 40.1 °F 41.9 °F 97% 29.81 in 10.0 mi WSW 4.6 mph - N/A   Overcast
5:55 AM 42.8 °F 41.1 °F 42.1 °F 97% 29.82 in 10.0 mi West 3.5 mph - N/A   Overcast
6:15 AM 42.8 °F 40.1 °F 41.9 °F 97% 29.83 in 10.0 mi WNW 4.6 mph - N/A   Overcast
6:35 AM 42.8 °F 41.1 °F 41.9 °F 97% 29.83 in 10.0 mi West 3.5 mph - N/A   Overcast
6:55 AM 42.8 °F 40.1 °F 41.9 °F 97% 29.84 in 10.0 mi West 4.6 mph - N/A   Overcast
7:15 AM 42.8 °F 40.1 °F 41.5 °F 95% 29.84 in 10.0 mi West 4.6 mph - N/A   Overcast
7:35 AM 42.8 °F - 41.2 °F 94% 29.84 in 10.0 mi Calm Calm - N/A   Overcast
7:55 AM 42.8 °F 41.1 °F 41.4 °F 95% 29.85 in 10.0 mi West 3.5 mph - N/A   Overcast
8:15 AM 42.8 °F 40.1 °F 41.0 °F 93% 29.86 in 10.0 mi West 4.6 mph - N/A   Overcast
8:35 AM 42.8 °F - 41.0 °F 93% 29.86 in 10.0 mi Calm Calm - N/A   Overcast
8:55 AM 43.3 °F - 41.2 °F 92% 29.87 in 10.0 mi Calm Calm - N/A   Overcast
9:15 AM 44.2 °F - 41.7 °F 91% 29.87 in 10.0 mi Calm Calm - N/A   Overcast
9:35 AM 44.6 °F - 42.1 °F 91% 29.89 in 10.0 mi Calm Calm - N/A   Overcast
9:55 AM 45.3 °F - 42.6 °F 90% 29.91 in 10.0 mi Calm Calm - N/A   Overcast
10:15 AM 45.9 °F 44.6 °F 43.0 °F 90% 29.90 in 10.0 mi NE 3.5 mph - N/A   Overcast
10:35 AM 47.8 °F - 43.9 °F 86% 29.91 in 10.0 mi ESE 3.5 mph - N/A   Overcast
10:55 AM 49.3 °F - 44.1 °F 82% 29.93 in 10.0 mi Calm Calm - N/A   Overcast
11:15 AM 51.3 °F - 44.6 °F 78% 29.93 in 10.0 mi Calm Calm - N/A   Scattered Clouds
11:35 AM 52.0 °F - 44.8 °F 76% 29.93 in 10.0 mi Calm Calm - N/A   Mostly Cloudy
11:55 AM 52.9 °F - 44.8 °F 74% 29.94 in 10.0 mi Calm Calm - N/A   Overcast
12:15 PM 52.9 °F - 44.6 °F 73% 29.95 in 10.0 mi West 4.6 mph - N/A   Mostly Cloudy
12:35 PM 55.6 °F - 46.6 °F 72% 29.96 in 10.0 mi West 5.8 mph - N/A   Scattered Clouds
12:55 PM 56.3 °F - 46.2 °F 69% 29.96 in 10.0 mi West 8.1 mph - N/A   Clear
1:15 PM 57.6 °F - 45.9 °F 65% 29.95 in 10.0 mi West 3.5 mph - N/A   Clear
1:35 PM 59.0 °F - 46.2 °F 63% 29.95 in 10.0 mi West 8.1 mph - N/A   Clear
1:55 PM 60.8 °F - 45.5 °F 57% 29.95 in 10.0 mi South 8.1 mph - N/A   Scattered Clouds
2:15 PM 61.0 °F - 45.1 °F 56% 29.95 in 10.0 mi South 5.8 mph - N/A   Scattered Clouds
2:35 PM 63.0 °F - 46.2 °F 54% 29.95 in 10.0 mi SW 12.7 mph 18.4 mph N/A   Mostly Cloudy
2:55 PM 59.4 °F - 44.1 °F 57% 29.96 in 10.0 mi WSW 6.9 mph 17.3 mph N/A   Overcast
3:15 PM 58.1 °F - 44.1 °F 60% 29.96 in 10.0 mi SSW 4.6 mph - N/A   Overcast
3:35 PM 58.1 °F - 43.9 °F 59% 29.96 in 10.0 mi SSW 8.1 mph - N/A   Overcast
3:55 PM 58.6 °F - 43.3 °F 57% 29.95 in 10.0 mi South 8.1 mph - N/A   Overcast
4:15 PM 59.7 °F - 45.7 °F 60% 29.95 in 10.0 mi West 10.4 mph - N/A   Mostly Cloudy
4:35 PM 59.2 °F - 45.5 °F 60% 29.95 in 10.0 mi West 10.4 mph - N/A   Scattered Clouds
4:55 PM 60.1 °F - 44.4 °F 56% 29.93 in 10.0 mi West 6.9 mph - N/A   Clear
5:15 PM 60.1 °F - 44.6 °F 57% 29.93 in 10.0 mi West 10.4 mph - N/A   Clear
5:35 PM 60.8 °F - 44.2 °F 54% 29.92 in 10.0 mi SW 3.5 mph - N/A   Clear
5:55 PM 60.8 °F - 43.9 °F 54% 29.92 in 10.0 mi SW 9.2 mph - N/A   Clear
6:15 PM 60.1 °F - 44.1 °F 55% 29.92 in 10.0 mi SW 6.9 mph - N/A   Clear
6:35 PM 59.4 °F - 43.5 °F 56% 29.92 in 10.0 mi SW 8.1 mph - N/A   Clear
6:55 PM 58.1 °F - 43.3 °F 58% 29.93 in 10.0 mi WSW 6.9 mph - N/A   Clear
7:15 PM 56.5 °F - 44.2 °F 64% 29.94 in 10.0 mi SSW 3.5 mph - N/A   Clear
7:35 PM 54.1 °F - 42.6 °F 65% 29.94 in 10.0 mi West 4.6 mph - N/A   Clear
7:55 PM 51.8 °F - 43.0 °F 72% 29.95 in 10.0 mi WSW 6.9 mph - N/A   Clear
8:15 PM 49.8 °F - 42.8 °F 77% 29.95 in 10.0 mi West 4.6 mph - N/A   Clear
8:35 PM 48.7 °F - 42.8 °F 80% 29.96 in 10.0 mi West 6.9 mph - N/A   Clear
8:55 PM 48.4 °F - 42.3 °F 79% 29.97 in 10.0 mi West 6.9 mph - N/A   Clear
9:15 PM 48.0 °F - 41.9 °F 79% 29.98 in 10.0 mi SW 4.6 mph - N/A   Clear
9:35 PM 47.1 °F - 41.9 °F 82% 29.99 in 10.0 mi West 4.6 mph - N/A   Clear
9:55 PM 46.4 °F 42.9 °F 41.7 °F 84% 29.99 in 10.0 mi SW 6.9 mph - N/A   Clear
10:15 PM 47.1 °F - 41.9 °F 82% 30.01 in 10.0 mi West 9.2 mph - N/A   Clear
10:35 PM 46.0 °F 43.9 °F 41.5 °F 84% 30.01 in 10.0 mi SSW 4.6 mph - N/A   Clear
10:55 PM 46.2 °F 43.3 °F 41.5 °F 84% 30.01 in 10.0 mi SSW 5.8 mph - N/A   Clear
11:15 PM 45.1 °F 43.7 °F 41.2 °F 86% 30.03 in 10.0 mi West 3.5 mph - N/A   Clear
11:35 PM 43.2 °F - 40.3 °F 90% 30.04 in 10.0 mi Calm Calm - N/A   Scattered Clouds
11:55 PM 43.2 °F 41.5 °F 40.6 °F 91% 30.06 in 10.0 mi ENE 3.5 mph - N/A   Mostly Cloudy